| time (UTC) | temp C | wind direction | speed KPH | gust KPH | rain 1hr cm | rain 24hr cm | rain mn cm | humidity % | barometer mb |
| 20260508181803 | 21 | 167 | 4.8 | 8.0 | 0.00 | 0.00 | 0.00 | 52 | 1010.2 |
| 20260508181303 | 21 | 142 | 4.8 | 16.1 | 0.00 | 0.00 | 0.00 | 52 | 1010.2 |
| 20260508180303 | 21 | 151 | 8.0 | 20.9 | 0.00 | 0.00 | 0.00 | 53 | 1010.1 |
| 20260508175803 | 21 | 303 | 8.0 | 20.9 | 0.00 | 0.00 | 0.00 | 52 | 1010.1 |
| 20260508175305 | 21 | 173 | 4.8 | 14.5 | 0.00 | 0.00 | 0.00 | 53 | 1010.1 |
| 20260508174803 | 21 | 167 | 3.2 | 9.7 | 0.00 | 0.00 | 0.00 | 54 | 1010.9 |
| 20260508174302 | 21 | 96 | 6.4 | 12.9 | 0.00 | 0.00 | 0.00 | 54 | 1010.9 |
| 20260508173803 | 20 | 145 | 6.4 | 9.7 | 0.00 | 0.00 | 0.00 | 54 | 1010.9 |
| 20260508173303 | 20 | 167 | 3.2 | 9.7 | 0.00 | 0.00 | 0.00 | 55 | 1010.9 |
| 20260508172803 | 20 | 145 | 3.2 | 9.7 | 0.00 | 0.00 | 0.00 | 55 | 1011.2 |
| 20260508172306 | 20 | 145 | 4.8 | 9.7 | 0.00 | 0.00 | 0.00 | 56 | 1011.2 |
| 20260508171803 | 19 | 123 | 6.4 | 12.9 | 0.00 | 0.00 | 0.00 | 56 | 1011.2 |
| 20260508171303 | 19 | 145 | 3.2 | 12.9 | 0.00 | 0.00 | 0.00 | 56 | 1011.2 |
| 20260508170803 | 19 | 167 | 1.6 | 11.3 | 0.00 | 0.00 | 0.00 | 58 | 1011.4 |
| 20260508170303 | 19 | 155 | 3.2 | 9.7 | 0.00 | 0.00 | 0.00 | 58 | 1011.4 |
| 20260508165802 | 19 | 190 | 1.6 | 9.7 | 0.00 | 0.00 | 0.00 | 58 | 1011.4 |
| 20260508164802 | 19 | 167 | 0.0 | 3.2 | 0.00 | 0.00 | 0.00 | 59 | 1011.9 |
| 20260508163803 | 18 | 303 | 0.0 | 4.8 | 0.00 | 0.00 | 0.00 | 59 | 1011.9 |
| 20260508163303 | 17 | 164 | 1.6 | 4.8 | 0.00 | 0.00 | 0.00 | 59 | 1011.9 |
| 20260508162803 | 17 | 145 | 1.6 | 4.8 | 0.00 | 0.00 | 0.00 | 59 | 1011.9 |
| 20260508162306 | 17 | 145 | 1.6 | 9.7 | 0.00 | 0.00 | 0.00 | 59 | 1011.9 |
| 20260508161802 | 17 | 145 | 1.6 | 8.0 | 0.00 | 0.00 | 0.00 | 59 | 1011.9 |
| 20260508161303 | 17 | 167 | 3.2 | 8.0 | 0.00 | 0.00 | 0.00 | 59 | 1011.9 |
| 20260508160803 | 17 | 145 | 3.2 | 8.0 | 0.00 | 0.00 | 0.00 | 59 | 1012.4 |
| 20260508160302 | 17 | 204 | 3.2 | 8.0 | 0.00 | 0.00 | 0.00 | 58 | 1012.4 |
| 20260508155803 | 17 | 145 | 3.2 | 4.8 | 0.00 | 0.00 | 0.00 | 58 | 1012.4 |
| 20260508154803 | 17 | 100 | 4.8 | 12.9 | 0.00 | 0.00 | 0.00 | 58 | 1012.0 |
| 20260508154303 | 17 | 176 | 4.8 | 8.0 | 0.00 | 0.00 | 0.00 | 57 | 1012.0 |
| 20260508153802 | 17 | 100 | 4.8 | 11.3 | 0.00 | 0.00 | 0.00 | 58 | 1012.0 |
| 20260508153302 | 17 | 145 | 4.8 | 9.7 | 0.00 | 0.00 | 0.00 | 57 | 1012.0 |
| 20260508152802 | 17 | 145 | 3.2 | 8.0 | 0.00 | 0.00 | 0.00 | 57 | 1012.3 |
| 20260508152305 | 17 | 192 | 3.2 | 4.8 | 0.00 | 0.00 | 0.00 | 57 | 1012.3 |
| 20260508151803 | 17 | 213 | 3.2 | 8.0 | 0.00 | 0.00 | 0.00 | 57 | 1012.3 |
| 20260508151303 | 17 | 244 | 3.2 | 8.0 | 0.00 | 0.00 | 0.00 | 57 | 1012.3 |
| 20260508150802 | 17 | 145 | 3.2 | 8.0 | 0.00 | 0.00 | 0.00 | 57 | 1012.7 |
| 20260508145803 | 17 | 145 | 8.0 | 12.9 | 0.00 | 0.00 | 0.00 | 56 | 1012.7 |
| 20260508144803 | 18 | 167 | 9.7 | 22.5 | 0.00 | 0.00 | 0.00 | 56 | 1012.9 |
| 20260508144302 | 18 | 145 | 11.3 | 22.5 | 0.00 | 0.00 | 0.00 | 56 | 1012.9 |
| 20260508143803 | 18 | 145 | 11.3 | 19.3 | 0.00 | 0.00 | 0.00 | 56 | 1012.9 |
| 20260508143303 | 18 | 133 | 8.0 | 22.5 | 0.00 | 0.00 | 0.00 | 57 | 1012.9 |
| 20260508142803 | 18 | 190 | 4.8 | 22.5 | 0.00 | 0.00 | 0.00 | 58 | 1012.9 |
| 20260508141803 | 17 | 190 | 3.2 | 8.0 | 0.00 | 0.00 | 0.00 | 62 | 1012.9 |
| 20260508141303 | 17 | 192 | 4.8 | 9.7 | 0.00 | 0.00 | 0.00 | 63 | 1012.9 |
| 20260508140803 | 16 | 190 | 4.8 | 8.0 | 0.00 | 0.00 | 0.00 | 64 | 1012.7 |
| 20260508140303 | 16 | 253 | 3.2 | 8.0 | 0.00 | 0.00 | 0.00 | 65 | 1012.7 |
| 20260508135803 | 16 | 145 | 3.2 | 12.9 | 0.00 | 0.00 | 0.00 | 65 | 1012.7 |
| 20260508135306 | 16 | 132 | 3.2 | 14.5 | 0.00 | 0.00 | 0.00 | 66 | 1012.7 |
| 20260508134803 | 15 | 190 | 3.2 | 14.5 | 0.00 | 0.00 | 0.00 | 66 | 1012.6 |
| 20260508133803 | 15 | 190 | 1.6 | 9.7 | 0.00 | 0.00 | 0.00 | 69 | 1012.6 |
| 20260508133303 | 15 | 205 | 0.0 | 9.7 | 0.00 | 0.00 | 0.00 | 69 | 1012.6 |
| 20260508132803 | 14 | 190 | 0.0 | 0.0 | 0.00 | 0.00 | 0.00 | 70 | 1012.6 |
| 20260508132306 | 14 | 229 | 1.6 | 8.0 | 0.00 | 0.00 | 0.00 | 70 | 1012.6 |
| 20260508131803 | 14 | 123 | 1.6 | 3.2 | 0.00 | 0.00 | 0.00 | 71 | 1012.6 |
| 20260508131303 | 14 | 222 | 1.6 | 8.0 | 0.00 | 0.00 | 0.00 | 70 | 1012.6 |
| 20260508124803 | 12 | 303 | 0.0 | 0.0 | 0.00 | 0.00 | 0.00 | 71 | 1012.8 |
| 20260508123803 | 12 | 190 | 0.0 | 0.0 | 0.00 | 0.00 | 0.00 | 72 | 1012.8 |
| 20260508123303 | 12 | 176 | 0.0 | 0.0 | 0.00 | 0.00 | 0.00 | 72 | 1012.8 |
| 20260508122803 | 12 | 347 | 0.0 | 0.0 | 0.00 | 0.00 | 0.00 | 72 | 1012.7 |
| 20260508121803 | 12 | 347 | 0.0 | 0.0 | 0.00 | 0.00 | 0.00 | 73 | 1012.7 |
| 20260508121303 | 12 | 206 | 0.0 | 0.0 | 0.00 | 0.00 | 0.00 | 73 | 1012.7 |
| 20260508115306 | 11 | 96 | 0.0 | 0.0 | 0.00 | 0.00 | 0.00 | 73 | 1013.0 |
| 20260508114804 | 11 | 280 | 1.6 | 0.0 | 0.00 | 0.00 | 0.00 | 65 | 1012.8 |
| 20260508044304 | 13 | 145 | 3.2 | 9.7 | 0.00 | 0.00 | 0.00 | 55 | 1014.8 |
| 20260508043804 | 12 | 145 | 0.0 | 4.8 | 0.00 | 0.00 | 0.00 | 55 | 1014.8 |
| 20260508043304 | 12 | 150 | 0.0 | 0.0 | 0.00 | 0.00 | 0.00 | 55 | 1014.8 |
| 20260508042804 | 12 | 167 | 0.0 | 0.0 | 0.00 | 0.00 | 0.00 | 55 | 1014.8 |
| 20260508042306 | 13 | 167 | 0.0 | 0.0 | 0.00 | 0.00 | 0.00 | 55 | 1014.8 |
| 20260508041804 | 13 | 167 | 0.0 | 0.0 | 0.00 | 0.00 | 0.00 | 55 | 1014.8 |
| 20260508041304 | 13 | 145 | 0.0 | 0.0 | 0.00 | 0.00 | 0.00 | 55 | 1014.8 |
| 20260508040804 | 13 | 145 | 0.0 | 0.0 | 0.00 | 0.00 | 0.00 | 54 | 1014.8 |
| 20260508040303 | 13 | 145 | 0.0 | 0.0 | 0.00 | 0.00 | 0.00 | 54 | 1014.8 |
| 20260508034804 | 13 | 145 | 0.0 | 0.0 | 0.00 | 0.00 | 0.00 | 53 | 1014.9 |
| 20260508034303 | 13 | 145 | 0.0 | 0.0 | 0.00 | 0.00 | 0.00 | 53 | 1014.9 |
| 20260508033803 | 13 | 145 | 0.0 | 0.0 | 0.00 | 0.00 | 0.00 | 53 | 1014.9 |
| 20260508033303 | 13 | 145 | 0.0 | 0.0 | 0.00 | 0.00 | 0.00 | 53 | 1014.9 |
| 20260508032803 | 13 | 145 | 0.0 | 0.0 | 0.00 | 0.00 | 0.00 | 52 | 1014.8 |
| 20260508032306 | 13 | 145 | 0.0 | 3.2 | 0.00 | 0.00 | 0.00 | 52 | 1014.8 |
| 20260508031804 | 13 | 145 | 0.0 | 3.2 | 0.00 | 0.00 | 0.00 | 52 | 1014.8 |
| 20260508031303 | 13 | 145 | 0.0 | 0.0 | 0.00 | 0.00 | 0.00 | 52 | 1014.8 |
| 20260508030803 | 14 | 145 | 0.0 | 3.2 | 0.00 | 0.00 | 0.00 | 51 | 1014.7 |
| 20260508030304 | 14 | 145 | 0.0 | 3.2 | 0.00 | 0.00 | 0.00 | 50 | 1014.7 |
| 20260508025804 | 14 | 145 | 0.0 | 0.0 | 0.00 | 0.00 | 0.00 | 50 | 1014.7 |
| 20260508025306 | 14 | 145 | 0.0 | 0.0 | 0.00 | 0.00 | 0.00 | 49 | 1014.7 |
| 20260508024804 | 14 | 145 | 0.0 | 0.0 | 0.00 | 0.00 | 0.00 | 49 | 1014.8 |
| 20260508024303 | 14 | 145 | 0.0 | 0.0 | 0.00 | 0.00 | 0.00 | 49 | 1014.8 |
| 20260508023804 | 15 | 145 | 0.0 | 0.0 | 0.00 | 0.00 | 0.00 | 48 | 1014.8 |
| 20260508022804 | 15 | 145 | 0.0 | 0.0 | 0.00 | 0.00 | 0.00 | 46 | 1014.7 |
| 20260508022306 | 15 | 145 | 0.0 | 0.0 | 0.00 | 0.00 | 0.00 | 46 | 1014.7 |
| 20260508021804 | 15 | 145 | 0.0 | 0.0 | 0.00 | 0.00 | 0.00 | 45 | 1014.7 |
| 20260508021304 | 15 | 145 | 0.0 | 0.0 | 0.00 | 0.00 | 0.00 | 44 | 1014.7 |
| 20260508020304 | 15 | 145 | 0.0 | 0.0 | 0.00 | 0.00 | 0.00 | 44 | 1014.4 |
| 20260508015803 | 16 | 145 | 0.0 | 0.0 | 0.00 | 0.00 | 0.00 | 43 | 1014.4 |
| 20260508015305 | 16 | 155 | 0.0 | 0.0 | 0.00 | 0.00 | 0.00 | 42 | 1014.4 |
| 20260508014804 | 16 | 190 | 0.0 | 0.0 | 0.00 | 0.00 | 0.00 | 41 | 1014.2 |
| 20260508014303 | 16 | 190 | 0.0 | 0.0 | 0.00 | 0.00 | 0.00 | 41 | 1014.2 |
| 20260508013804 | 16 | 190 | 0.0 | 0.0 | 0.00 | 0.00 | 0.00 | 40 | 1014.2 |
| 20260508013304 | 16 | 190 | 0.0 | 0.0 | 0.00 | 0.00 | 0.00 | 39 | 1014.2 |
| 20260508012803 | 16 | 190 | 0.0 | 0.0 | 0.00 | 0.00 | 0.00 | 39 | 1014.0 |
| 20260508012307 | 17 | 190 | 0.0 | 0.0 | 0.00 | 0.00 | 0.00 | 38 | 1014.0 |
| 20260508011304 | 17 | 190 | 0.0 | 0.0 | 0.00 | 0.00 | 0.00 | 37 | 1014.0 |
| 20260508010803 | 17 | 190 | 0.0 | 0.0 | 0.00 | 0.00 | 0.00 | 37 | 1013.7 |
| 20260508010304 | 17 | 190 | 0.0 | 0.0 | 0.00 | 0.00 | 0.00 | 37 | 1013.7 |
| 20260508005803 | 18 | 190 | 0.0 | 0.0 | 0.00 | 0.00 | 0.00 | 36 | 1013.7 |
| 20260508005305 | 18 | 145 | 0.0 | 0.0 | 0.00 | 0.00 | 0.00 | 36 | 1013.7 |
| 20260508004803 | 19 | 145 | 1.6 | 4.8 | 0.00 | 0.00 | 0.00 | 35 | 1013.6 |
| 20260508004304 | 19 | 250 | 3.2 | 4.8 | 0.00 | 0.00 | 0.00 | 35 | 1013.6 |
| 20260508003305 | 19 | 285 | 3.2 | 4.8 | 0.00 | 0.00 | 0.00 | 34 | 1013.6 |
| 20260508002804 | 19 | 145 | 3.2 | 8.0 | 0.00 | 0.00 | 0.00 | 35 | 1013.8 |
| 20260508002306 | 18 | 158 | 3.2 | 12.9 | 0.00 | 0.00 | 0.00 | 34 | 1013.8 |
| 20260508001803 | 18 | 123 | 3.2 | 12.9 | 0.00 | 0.00 | 0.00 | 34 | 1013.8 |
| 20260508000804 | 19 | 167 | 9.7 | 14.5 | 0.00 | 0.00 | 0.00 | 33 | 1013.8 |
| 20260508000305 | 19 | 145 | 8.0 | 16.1 | 0.00 | 0.00 | 0.00 | 32 | 1013.8 |
| 20260507235306 | 19 | 150 | 6.4 | 9.7 | 0.00 | 0.00 | 0.00 | 33 | 1013.8 |
| 20260507234804 | 19 | 145 | 9.7 | 9.7 | 0.00 | 0.00 | 0.00 | 32 | 1013.3 |
| 20260507234304 | 19 | 162 | 9.7 | 19.3 | 0.00 | 0.00 | 0.00 | 32 | 1013.3 |
| 20260507233804 | 20 | 167 | 9.7 | 9.7 | 0.00 | 0.00 | 0.00 | 31 | 1013.3 |
| 20260507233304 | 20 | 157 | 11.3 | 19.3 | 0.00 | 0.00 | 0.00 | 31 | 1013.3 |
| 20260507232803 | 20 | 145 | 9.7 | 14.5 | 0.00 | 0.00 | 0.00 | 30 | 1013.2 |
| 20260507232306 | 20 | 126 | 9.7 | 19.3 | 0.00 | 0.00 | 0.00 | 30 | 1013.2 |
| 20260507231303 | 21 | 162 | 8.0 | 20.9 | 0.00 | 0.00 | 0.00 | 29 | 1013.2 |
| 20260507230804 | 22 | 145 | 9.7 | 12.9 | 0.00 | 0.00 | 0.00 | 28 | 1013.8 |
| 20260507230303 | 22 | 180 | 9.7 | 20.9 | 0.00 | 0.00 | 0.00 | 28 | 1013.8 |
| 20260507225306 | 22 | 167 | 9.7 | 16.1 | 0.00 | 0.00 | 0.00 | 27 | 1013.8 |
| 20260507223801 | 22 | 123 | 8.0 | 14.5 | 0.00 | 0.00 | 0.00 | 27 | 1013.8 |
| 20260507222802 | 22 | 167 | 11.3 | 14.5 | 0.00 | 0.00 | 0.00 | 29 | 1013.8 |
| 20260507222305 | 22 | 162 | 12.9 | 16.1 | 0.00 | 0.00 | 0.00 | 28 | 1013.8 |
| 20260507221801 | 22 | 145 | 12.9 | 24.1 | 0.00 | 0.00 | 0.00 | 29 | 1013.8 |
| 20260507221302 | 22 | 292 | 9.7 | 24.1 | 0.00 | 0.00 | 0.00 | 27 | 1013.8 |
| 20260507220802 | 22 | 167 | 8.0 | 20.9 | 0.00 | 0.00 | 0.00 | 27 | 1014.1 |
| 20260507220302 | 22 | 210 | 8.0 | 12.9 | 0.00 | 0.00 | 0.00 | 28 | 1014.1 |
| 20260507215801 | 22 | 325 | 9.7 | 35.4 | 0.00 | 0.00 | 0.00 | 29 | 1014.1 |
| 20260507214802 | 22 | 123 | 12.9 | 24.1 | 0.00 | 0.00 | 0.00 | 29 | 1014.0 |
| 20260507214301 | 22 | 207 | 11.3 | 22.5 | 0.00 | 0.00 | 0.00 | 29 | 1014.0 |
| 20260507213802 | 21 | 190 | 9.7 | 16.1 | 0.00 | 0.00 | 0.00 | 30 | 1014.0 |
| 20260507213302 | 21 | 145 | 11.3 | 27.4 | 0.00 | 0.00 | 0.00 | 30 | 1012.8 |
| 20260507212802 | 22 | 145 | 11.3 | 14.5 | 0.00 | 0.00 | 0.00 | 28 | 1013.3 |
| 20260507212306 | 22 | 112 | 9.7 | 27.4 | 0.00 | 0.00 | 0.00 | 29 | 1013.3 |
| 20260507211802 | 22 | 280 | 8.0 | 12.9 | 0.00 | 0.00 | 0.00 | 30 | 1013.3 |
| 20260507211302 | 21 | 145 | 9.7 | 14.5 | 0.00 | 0.00 | 0.00 | 30 | 1013.3 |
| 20260507210802 | 21 | 167 | 9.7 | 12.9 | 0.00 | 0.00 | 0.00 | 31 | 1013.6 |
| 20260507210302 | 22 | 145 | 11.3 | 24.1 | 0.00 | 0.00 | 0.00 | 31 | 1013.6 |
| 20260507205802 | 22 | 280 | 9.7 | 24.1 | 0.00 | 0.00 | 0.00 | 32 | 1013.6 |
| 20260507205302 | 21 | 179 | 8.0 | 20.9 | 0.00 | 0.00 | 0.00 | 32 | 1013.6 |
| 20260507204802 | 20 | 167 | 9.7 | 12.9 | 0.00 | 0.00 | 0.00 | 32 | 1013.8 |
| 20260507204301 | 20 | 4 | 9.7 | 20.9 | 0.00 | 0.00 | 0.00 | 32 | 1013.8 |
| 20260507203802 | 21 | 167 | 9.7 | 22.5 | 0.00 | 0.00 | 0.00 | 31 | 1013.8 |
| 20260507202801 | 20 | 213 | 11.3 | 27.4 | 0.00 | 0.00 | 0.00 | 32 | 1014.3 |
| 20260507202306 | 20 | 128 | 9.7 | 27.4 | 0.00 | 0.00 | 0.00 | 32 | 1014.3 |
| 20260507201802 | 21 | 123 | 11.3 | 12.9 | 0.00 | 0.00 | 0.00 | 31 | 1014.3 |
| 20260507201302 | 21 | 145 | 11.3 | 14.5 | 0.00 | 0.00 | 0.00 | 31 | 1014.3 |
| 20260507200802 | 21 | 145 | 9.7 | 32.2 | 0.00 | 0.00 | 0.00 | 31 | 1014.1 |
| 20260507195802 | 22 | 145 | 9.7 | 20.9 | 0.00 | 0.00 | 0.00 | 29 | 1014.1 |
| 20260507195305 | 22 | 145 | 8.0 | 19.3 | 0.00 | 0.00 | 0.00 | 29 | 1014.1 |
| 20260507194801 | 21 | 145 | 9.7 | 19.3 | 0.00 | 0.00 | 0.00 | 30 | 1014.3 |
| 20260507194302 | 21 | 145 | 9.7 | 24.1 | 0.00 | 0.00 | 0.00 | 31 | 1014.3 |
| 20260507193802 | 21 | 257 | 11.3 | 14.5 | 0.00 | 0.00 | 0.00 | 30 | 1014.3 |
| 20260507192801 | 21 | 145 | 9.7 | 29.0 | 0.00 | 0.00 | 0.00 | 31 | 1014.7 |
| 20260507192305 | 22 | 145 | 8.0 | 11.3 | 0.00 | 0.00 | 0.00 | 31 | 1014.7 |
| 20260507191802 | 20 | 10 | 9.7 | 19.3 | 0.00 | 0.00 | 0.00 | 31 | 1014.7 |
| 20260507191302 | 21 | 198 | 9.7 | 19.3 | 0.00 | 0.00 | 0.00 | 33 | 1014.7 |
| 20260507190802 | 21 | 145 | 11.3 | 12.9 | 0.00 | 0.00 | 0.00 | 32 | 1014.8 |
| 20260507190302 | 21 | 173 | 11.3 | 14.5 | 0.00 | 0.00 | 0.00 | 34 | 1014.8 |
| 20260507185802 | 20 | 145 | 9.7 | 19.3 | 0.00 | 0.00 | 0.00 | 33 | 1014.8 |
| 20260507185305 | 20 | 131 | 9.7 | 19.3 | 0.00 | 0.00 | 0.00 | 32 | 1014.8 |
| 20260507184802 | 20 | 325 | 8.0 | 19.3 | 0.00 | 0.00 | 0.00 | 33 | 1014.7 |
| 20260507184301 | 20 | 129 | 8.0 | 14.5 | 0.00 | 0.00 | 0.00 | 36 | 1014.7 |
| 20260507183802 | 20 | 145 | 9.7 | 19.3 | 0.00 | 0.00 | 0.00 | 37 | 1014.7 |
| 20260507183302 | 20 | 150 | 9.7 | 19.3 | 0.00 | 0.00 | 0.00 | 35 | 1014.7 |
| 20260507182802 | 20 | 280 | 9.7 | 16.1 | 0.00 | 0.00 | 0.00 | 36 | 1015.4 |
| 20260507182306 | 20 | 129 | 11.3 | 22.5 | 0.00 | 0.00 | 0.00 | 36 | 1015.4 |